Location: ????????
(60.5616°N, 46.8254°E)
Time: 20:33:40
(UTC+00:00)

NOAA 11 - Pass Details

Date: 18 February 2020
Orbit: 833 x 849 km, 98.4° (Epoch: 03 April)

Event Time Altitude Azimuth Distance (km) Brightness Sun altitude
Rises 15:11:37 0° 167° (SSE) 3,388 7.3 -10.8°
Reaches altitude 10° 15:13:59 10° 169° (S) 2,455 6.6 -11.0°
Maximum altitude 15:19:26 74° 254° (WSW) 878 4.5 -11.7°
Drops below altitude 10° 15:24:54 10° 340° (NNW) 2,463 6.9 -12.4°
Sets 15:27:17 0° 343° (NNW) 3,400 7.6 -12.7°
